| time (UTC) | temp F | wind direction | speed knots | gust knots | rain 1hr in | rain 24hr in | rain mn in | humidity % | barometer mb |
| 20260507115123 | 53 | 90 | 0.0 | 0.0 | 0.00 | 0.00 | 0.00 | 84 | 1013.0 |
| 20260507114624 | 53 | 30 | 0.0 | 0.9 | 0.00 | 0.00 | 0.00 | 84 | 1013.0 |
| 20260507114123 | 53 | 296 | 0.0 | 0.9 | 0.00 | 0.00 | 0.00 | 85 | 1013.0 |
| 20260507113623 | 53 | 179 | 0.0 | 0.9 | 0.00 | 0.00 | 0.00 | 85 | 1013.0 |
| 20260507113124 | 53 | 179 | 0.0 | 0.9 | 0.00 | 0.00 | 0.00 | 82 | 1013.0 |
| 20260507112623 | 53 | 315 | 0.0 | 0.9 | 0.00 | 0.00 | 0.00 | 85 | 1013.0 |
| 20260507111911 | 53 | 141 | 0.0 | 0.0 | 0.00 | 0.00 | 0.00 | 84 | 1013.0 |
| 20260507111411 | 53 | 90 | 0.0 | 0.9 | 0.00 | 0.00 | 0.00 | 85 | 1013.0 |
| 20260507110911 | 53 | 63 | 0.9 | 0.9 | 0.00 | 0.00 | 0.00 | 87 | 1013.0 |
| 20260507105947 | 53 | 134 | 0.0 | 0.9 | 0.00 | 0.00 | 0.00 | 87 | 1013.0 |
| 20260507105447 | 53 | 57 | 0.0 | 0.9 | 0.00 | 0.00 | 0.00 | 86 | 1013.0 |
| 20260507104948 | 53 | 90 | 0.0 | 0.0 | 0.00 | 0.00 | 0.00 | 87 | 1013.0 |
| 20260507104235 | 53 | 302 | 0.0 | 0.9 | 0.00 | 0.00 | 0.00 | 88 | 1013.0 |
| 20260507103736 | 53 | 301 | 0.0 | 0.9 | 0.00 | 0.00 | 0.00 | 88 | 1013.0 |
| 20260507103235 | 53 | 186 | 0.9 | 2.6 | 0.00 | 0.00 | 0.00 | 86 | 1013.0 |
| 20260507102735 | 53 | 179 | 0.0 | 2.6 | 0.00 | 0.00 | 0.00 | 86 | 1013.0 |
| 20260507102235 | 53 | 132 | 0.0 | 0.9 | 0.00 | 0.00 | 0.00 | 85 | 1013.0 |
| 20260507101736 | 53 | 122 | 0.0 | 0.0 | 0.00 | 0.00 | 0.00 | 86 | 1013.0 |
| 20260507101236 | 53 | 210 | 0.0 | 0.0 | 0.00 | 0.00 | 0.00 | 86 | 1013.0 |
| 20260507100735 | 53 | 179 | 0.0 | 0.9 | 0.00 | 0.00 | 0.00 | 87 | 1013.0 |
| 20260507100235 | 53 | 179 | 0.9 | 0.9 | 0.00 | 0.00 | 0.00 | 86 | 1013.0 |
| 20260507095522 | 52 | 53 | 0.0 | 0.9 | 0.00 | 0.00 | 0.00 | 88 | 1013.0 |
| 20260507095022 | 53 | 130 | 0.0 | 0.0 | 0.00 | 0.00 | 0.00 | 89 | 1013.0 |
| 20260507094312 | 53 | 133 | 0.0 | 0.9 | 0.00 | 0.00 | 0.00 | 88 | 1013.0 |
| 20260507093810 | 52 | 149 | 0.0 | 0.9 | 0.00 | 0.00 | 0.00 | 87 | 1012.0 |
| 20260507093310 | 52 | 66 | 0.9 | 0.9 | 0.00 | 0.00 | 0.00 | 87 | 1012.0 |
| 20260507092810 | 53 | 75 | 0.9 | 0.9 | 0.00 | 0.00 | 0.00 | 89 | 1013.0 |
| 20260507092311 | 53 | 179 | 0.0 | 0.9 | 0.00 | 0.00 | 0.00 | 89 | 1013.0 |
| 20260507091810 | 52 | 90 | 0.0 | 0.9 | 0.00 | 0.00 | 0.00 | 89 | 1013.0 |
| 20260507091312 | 53 | 90 | 0.9 | 0.9 | 0.00 | 0.00 | 0.00 | 88 | 1013.0 |
| 20260507090810 | 53 | 179 | 0.0 | 0.9 | 0.00 | 0.00 | 0.00 | 88 | 1013.0 |
| 20260507090310 | 53 | 159 | 0.0 | 0.9 | 0.00 | 0.00 | 0.00 | 87 | 1013.0 |
| 20260507085810 | 53 | 90 | 0.0 | 0.9 | 0.00 | 0.00 | 0.00 | 88 | 1013.0 |
| 20260507085310 | 53 | 131 | 0.0 | 0.9 | 0.00 | 0.00 | 0.00 | 87 | 1012.0 |
| 20260507084811 | 52 | 145 | 0.9 | 0.0 | 0.00 | 0.00 | 0.00 | 86 | 1012.0 |
| 20260507084310 | 52 | 131 | 0.0 | 0.9 | 0.00 | 0.00 | 0.00 | 88 | 1012.0 |
| 20260507083810 | 52 | 179 | 0.0 | 0.9 | 0.00 | 0.00 | 0.00 | 87 | 1012.0 |
| 20260507083310 | 52 | 156 | 0.0 | 0.9 | 0.00 | 0.00 | 0.00 | 87 | 1012.0 |
| 20260507082810 | 52 | 188 | 0.0 | 0.9 | 0.00 | 0.00 | 0.00 | 87 | 1012.0 |
| 20260507082310 | 51 | 179 | 0.0 | 1.7 | 0.00 | 0.00 | 0.00 | 87 | 1012.0 |
| 20260507081810 | 51 | 55 | 0.9 | 0.9 | 0.00 | 0.00 | 0.00 | 86 | 1012.0 |
| 20260507081100 | 51 | 90 | 0.0 | 1.7 | 0.00 | 0.00 | 0.00 | 88 | 1012.0 |
| 20260507080559 | 51 | 52 | 1.7 | 3.5 | 0.00 | 0.00 | 0.00 | 85 | 1012.0 |
| 20260507080059 | 51 | 51 | 1.7 | 5.2 | 0.00 | 0.00 | 0.00 | 84 | 1012.0 |
| 20260507075559 | 51 | 46 | 0.0 | 5.2 | 0.00 | 0.00 | 0.00 | 85 | 1012.0 |
| 20260507074634 | 51 | 29 | 1.7 | 5.2 | 0.00 | 0.00 | 0.00 | 86 | 1012.0 |
| 20260507073923 | 51 | 66 | 1.7 | 4.3 | 0.00 | 0.00 | 0.00 | 86 | 1012.0 |
| 20260507073423 | 51 | 26 | 2.6 | 6.1 | 0.00 | 0.00 | 0.00 | 84 | 1011.0 |
| 20260507072924 | 52 | 28 | 1.7 | 5.2 | 0.00 | 0.00 | 0.00 | 87 | 1012.0 |
| 20260507072422 | 52 | 31 | 3.5 | 6.1 | 0.00 | 0.00 | 0.00 | 85 | 1012.0 |
| 20260507071711 | 53 | 72 | 0.9 | 1.7 | 0.00 | 0.00 | 0.00 | 90 | 1012.0 |
| 20260507071213 | 53 | 16 | 0.9 | 2.6 | 0.00 | 0.00 | 0.00 | 89 | 1012.0 |
| 20260507070711 | 53 | 45 | 0.0 | 2.6 | 0.00 | 0.00 | 0.00 | 88 | 1011.0 |
| 20260507070211 | 53 | 25 | 0.9 | 1.7 | 0.00 | 0.00 | 0.00 | 88 | 1012.0 |
| 20260507065459 | 53 | 17 | 0.0 | 1.7 | 0.00 | 0.00 | 0.00 | 88 | 1012.0 |
| 20260507064747 | 53 | 24 | 0.9 | 2.6 | 0.00 | 0.00 | 0.00 | 88 | 1012.0 |
| 20260507064248 | 53 | 335 | 0.9 | 1.7 | 0.00 | 0.00 | 0.00 | 87 | 1012.0 |
| 20260507063747 | 54 | 254 | 0.0 | 0.9 | 0.00 | 0.00 | 0.00 | 90 | 1012.0 |
| 20260507063248 | 53 | 25 | 0.9 | 1.7 | 0.00 | 0.00 | 0.00 | 89 | 1012.0 |
| 20260507062747 | 53 | 17 | 0.9 | 4.3 | 0.00 | 0.00 | 0.00 | 88 | 1012.0 |
| 20260507062034 | 53 | 311 | 2.6 | 5.2 | 0.00 | 0.00 | 0.00 | 88 | 1011.0 |
| 20260507061536 | 54 | 25 | 2.6 | 2.6 | 0.00 | 0.00 | 0.00 | 90 | 1011.0 |
| 20260507061034 | 54 | 23 | 0.9 | 2.6 | 0.00 | 0.00 | 0.00 | 90 | 1012.0 |
| 20260507060536 | 54 | 0 | 0.0 | 0.9 | 0.00 | 0.00 | 0.00 | 90 | 1012.0 |
| 20260507060034 | 54 | 327 | 0.9 | 2.6 | 0.00 | 0.00 | 0.00 | 91 | 1012.0 |
| 20260507055323 | 53 | 16 | 1.7 | 2.6 | 0.00 | 0.00 | 0.00 | 91 | 1011.0 |
| 20260507054822 | 54 | 326 | 0.9 | 1.7 | 0.00 | 0.00 | 0.00 | 92 | 1012.0 |
| 20260507054322 | 53 | 304 | 0.9 | 3.5 | 0.00 | 0.00 | 0.00 | 91 | 1012.0 |
| 20260507053823 | 53 | 37 | 0.9 | 2.6 | 0.00 | 0.00 | 0.00 | 92 | 1012.0 |
| 20260507053324 | 53 | 26 | 0.0 | 2.6 | 0.00 | 0.00 | 0.00 | 92 | 1012.0 |
| 20260507052824 | 53 | 327 | 0.0 | 3.5 | 0.00 | 0.00 | 0.00 | 91 | 1012.0 |
| 20260507052322 | 54 | 38 | 0.9 | 3.5 | 0.00 | 0.00 | 0.00 | 90 | 1012.0 |
| 20260507051358 | 54 | 140 | 0.0 | 2.6 | 0.00 | 0.00 | 0.00 | 91 | 1012.0 |
| 20260507050858 | 54 | 56 | 2.6 | 3.5 | 0.00 | 0.00 | 0.00 | 88 | 1012.0 |
| 20260507050358 | 54 | 278 | 0.9 | 5.2 | 0.00 | 0.00 | 0.00 | 89 | 1012.0 |
| 20260507045859 | 55 | 17 | 2.6 | 3.5 | 0.00 | 0.00 | 0.00 | 84 | 1012.0 |
| 20260507045358 | 56 | 336 | 1.7 | 3.5 | 0.00 | 0.00 | 0.00 | 80 | 1012.0 |
| 20260507044858 | 58 | 44 | 0.9 | 1.7 | 0.00 | 0.00 | 0.00 | 79 | 1012.0 |
| 20260507044358 | 58 | 56 | 0.0 | 3.5 | 0.00 | 0.00 | 0.00 | 72 | 1012.0 |
| 20260507043858 | 59 | 63 | 0.0 | 5.2 | 0.00 | 0.00 | 0.00 | 72 | 1012.0 |
| 20260507043359 | 59 | 14 | 0.9 | 7.0 | 0.00 | 0.00 | 0.00 | 71 | 1012.0 |
| 20260507042858 | 60 | 44 | 1.7 | 3.5 | 0.00 | 0.00 | 0.00 | 72 | 1012.0 |
| 20260507042147 | 60 | 36 | 2.6 | 2.6 | 0.00 | 0.00 | 0.00 | 72 | 1012.0 |
| 20260507041645 | 61 | 64 | 0.9 | 2.6 | 0.00 | 0.00 | 0.00 | 71 | 1012.0 |
| 20260507041145 | 61 | 203 | 0.0 | 2.6 | 0.00 | 0.00 | 0.00 | 70 | 1012.0 |
| 20260507040647 | 61 | 312 | 0.0 | 3.5 | 0.00 | 0.00 | 0.00 | 70 | 1011.0 |
| 20260507040145 | 62 | 39 | 1.7 | 1.7 | 0.00 | 0.00 | 0.00 | 69 | 1011.0 |
| 20260507035645 | 62 | 234 | 0.9 | 1.7 | 0.00 | 0.00 | 0.00 | 68 | 1011.0 |
| 20260507035145 | 62 | 52 | 0.9 | 2.6 | 0.00 | 0.00 | 0.00 | 68 | 1011.0 |
| 20260507034646 | 62 | 296 | 1.7 | 2.6 | 0.00 | 0.00 | 0.00 | 68 | 1011.0 |
| 20260507034145 | 62 | 327 | 0.9 | 1.7 | 0.00 | 0.00 | 0.00 | 67 | 1011.0 |
| 20260507033646 | 62 | 136 | 0.0 | 2.6 | 0.00 | 0.00 | 0.00 | 68 | 1011.0 |
| 20260507033145 | 62 | 33 | 1.7 | 2.6 | 0.00 | 0.00 | 0.00 | 68 | 1011.0 |
| 20260507032645 | 62 | 307 | 0.0 | 2.6 | 0.00 | 0.00 | 0.00 | 70 | 1011.0 |
| 20260507032145 | 62 | 279 | 0.9 | 2.6 | 0.00 | 0.00 | 0.00 | 68 | 1011.0 |
| 20260507031646 | 62 | 330 | 1.7 | 3.5 | 0.00 | 0.00 | 0.00 | 68 | 1011.0 |
| 20260507031145 | 62 | 323 | 1.7 | 2.6 | 0.00 | 0.00 | 0.00 | 69 | 1011.0 |
| 20260507030646 | 63 | 27 | 1.7 | 4.3 | 0.00 | 0.00 | 0.00 | 68 | 1011.0 |
| 20260507030146 | 63 | 33 | 4.3 | 6.1 | 0.00 | 0.00 | 0.00 | 68 | 1011.0 |
| 20260507025645 | 63 | 51 | 0.0 | 0.9 | 0.00 | 0.00 | 0.00 | 68 | 1011.0 |
| 20260507025145 | 63 | 46 | 0.9 | 3.5 | 0.00 | 0.00 | 0.00 | 70 | 1011.0 |
| 20260507024434 | 63 | 38 | 1.7 | 6.1 | 0.00 | 0.00 | 0.00 | 71 | 1011.0 |
| 20260507023934 | 63 | 320 | 0.9 | 7.0 | 0.00 | 0.00 | 0.00 | 73 | 1011.0 |
| 20260507023434 | 63 | 320 | 1.7 | 3.5 | 0.00 | 0.00 | 0.00 | 74 | 1011.0 |
| 20260507022934 | 64 | 23 | 0.9 | 4.3 | 0.00 | 0.00 | 0.00 | 74 | 1011.0 |
| 20260507022434 | 64 | 40 | 2.6 | 7.0 | 0.00 | 0.00 | 0.00 | 75 | 1011.0 |
| 20260507021934 | 65 | 32 | 0.9 | 3.5 | 0.00 | 0.00 | 0.00 | 76 | 1010.0 |
| 20260507021223 | 65 | 33 | 0.9 | 3.5 | 0.00 | 0.00 | 0.00 | 75 | 1010.0 |
| 20260507020258 | 65 | 10 | 1.7 | 2.6 | 0.00 | 0.00 | 0.00 | 74 | 1011.0 |
| 20260507015759 | 66 | 305 | 0.0 | 0.9 | 0.00 | 0.00 | 0.00 | 73 | 1011.0 |
| 20260507015046 | 66 | 318 | 0.0 | 1.7 | 0.00 | 0.00 | 0.00 | 73 | 1011.0 |
| 20260507014546 | 66 | 320 | 0.0 | 1.7 | 0.00 | 0.00 | 0.00 | 73 | 1010.0 |
| 20260507014046 | 66 | 44 | 0.9 | 2.6 | 0.00 | 0.00 | 0.00 | 73 | 1010.0 |
| 20260507013546 | 66 | 317 | 0.0 | 2.6 | 0.00 | 0.00 | 0.00 | 74 | 1011.0 |
| 20260507012836 | 66 | 49 | 0.9 | 3.5 | 0.00 | 0.00 | 0.00 | 73 | 1011.0 |
| 20260507012335 | 66 | 65 | 0.9 | 2.6 | 0.00 | 0.00 | 0.00 | 74 | 1010.0 |
| 20260507011835 | 66 | 185 | 0.0 | 0.9 | 0.00 | 0.00 | 0.00 | 78 | 1011.0 |
| 20260507011335 | 66 | 0 | 0.0 | 0.9 | 0.00 | 0.00 | 0.00 | 77 | 1011.0 |
| 20260507010835 | 67 | 0 | 0.0 | 0.0 | 0.00 | 0.00 | 0.00 | 77 | 1011.0 |
| 20260507010335 | 67 | 0 | 0.0 | 0.9 | 0.00 | 0.00 | 0.00 | 77 | 1011.0 |
| 20260507005836 | 67 | 38 | 0.9 | 0.9 | 0.00 | 0.00 | 0.00 | 78 | 1010.0 |
| 20260507005336 | 67 | 132 | 0.0 | 0.9 | 0.00 | 0.00 | 0.00 | 79 | 1010.0 |
| 20260507004835 | 67 | 90 | 0.0 | 0.9 | 0.00 | 0.00 | 0.00 | 77 | 1011.0 |
| 20260507004335 | 67 | 213 | 0.0 | 0.0 | 0.00 | 0.00 | 0.00 | 77 | 1010.0 |
| 20260507003409 | 66 | 42 | 0.0 | 0.9 | 0.00 | 0.00 | 0.00 | 76 | 1010.0 |
| 20260507002658 | 66 | 0 | 0.0 | 0.9 | 0.00 | 0.00 | 0.00 | 76 | 1010.0 |
| 20260507002158 | 67 | 51 | 0.0 | 0.9 | 0.00 | 0.00 | 0.00 | 76 | 1010.0 |
| 20260507001657 | 67 | 65 | 0.9 | 0.9 | 0.00 | 0.00 | 0.00 | 76 | 1010.0 |
| 20260507000524 | 68 | 134 | 0.9 | 1.7 | 0.00 | 0.00 | 0.00 | 76 | 1010.0 |
| 20260507000024 | 68 | 127 | 0.9 | 2.6 | 0.00 | 0.00 | 0.00 | 76 | 1010.0 |
| 20260506235525 | 68 | 112 | 1.7 | 2.6 | 0.00 | 0.00 | 0.00 | 74 | 1010.0 |
| 20260506235024 | 68 | 90 | 0.0 | 1.7 | 0.00 | 0.00 | 0.00 | 75 | 1010.0 |
| 20260506234524 | 68 | 70 | 0.0 | 1.7 | 0.00 | 0.00 | 0.00 | 75 | 1010.0 |
| 20260506234025 | 68 | 125 | 0.0 | 1.7 | 0.00 | 0.00 | 0.00 | 75 | 1009.0 |
| 20260506233524 | 68 | 126 | 0.9 | 1.7 | 0.00 | 0.00 | 0.00 | 75 | 1010.0 |
| 20260506233024 | 68 | 179 | 0.0 | 1.7 | 0.00 | 0.00 | 0.00 | 75 | 1010.0 |
| 20260506232313 | 68 | 0 | 0.0 | 0.9 | 0.00 | 0.00 | 0.00 | 73 | 1010.0 |
| 20260506231813 | 68 | 59 | 0.9 | 1.7 | 0.00 | 0.00 | 0.00 | 73 | 1009.0 |
| 20260506231312 | 68 | 32 | 0.0 | 0.9 | 0.00 | 0.00 | 0.00 | 74 | 1009.0 |
| 20260506230813 | 69 | 54 | 0.9 | 2.6 | 0.00 | 0.00 | 0.00 | 71 | 1010.0 |
| 20260506230311 | 69 | 47 | 0.0 | 2.6 | 0.00 | 0.00 | 0.00 | 73 | 1010.0 |
| 20260506225600 | 69 | 52 | 0.9 | 3.5 | 0.00 | 0.00 | 0.00 | 72 | 1010.0 |
| 20260506225059 | 69 | 53 | 0.0 | 0.9 | 0.00 | 0.00 | 0.00 | 71 | 1010.0 |
| 20260506224558 | 69 | 90 | 0.0 | 0.9 | 0.00 | 0.00 | 0.00 | 71 | 1009.0 |
| 20260506224059 | 69 | 90 | 0.0 | 2.6 | 0.00 | 0.00 | 0.00 | 72 | 1009.0 |
| 20260506223558 | 69 | 90 | 0.9 | 1.7 | 0.00 | 0.00 | 0.00 | 71 | 1009.0 |
| 20260506223059 | 69 | 61 | 0.0 | 0.9 | 0.00 | 0.00 | 0.00 | 72 | 1009.0 |
| 20260506222600 | 69 | 90 | 0.0 | 2.6 | 0.00 | 0.00 | 0.00 | 70 | 1009.0 |
| 20260506222058 | 69 | 32 | 0.0 | 1.7 | 0.00 | 0.00 | 0.00 | 72 | 1009.0 |
| 20260506221347 | 69 | 55 | 0.9 | 3.5 | 0.00 | 0.00 | 0.00 | 70 | 1010.0 |
| 20260506220634 | 70 | 108 | 2.6 | 3.5 | 0.00 | 0.00 | 0.00 | 69 | 1009.0 |
| 20260506215924 | 70 | 150 | 0.0 | 1.7 | 0.00 | 0.00 | 0.00 | 69 | 1009.0 |
| 20260506215424 | 70 | 30 | 0.0 | 2.6 | 0.00 | 0.00 | 0.00 | 70 | 1009.0 |
| 20260506214711 | 70 | 304 | 0.0 | 2.6 | 0.00 | 0.00 | 0.00 | 68 | 1009.0 |
| 20260506214213 | 70 | 179 | 0.0 | 3.5 | 0.00 | 0.00 | 0.00 | 70 | 1009.0 |
| 20260506213712 | 70 | 76 | 1.7 | 1.7 | 0.00 | 0.00 | 0.00 | 71 | 1009.0 |
| 20260506213212 | 70 | 90 | 0.9 | 1.7 | 0.00 | 0.00 | 0.00 | 69 | 1009.0 |
| 20260506212711 | 70 | 277 | 0.9 | 2.6 | 0.00 | 0.00 | 0.00 | 68 | 1009.0 |
| 20260506212211 | 70 | 132 | 0.0 | 2.6 | 0.00 | 0.00 | 0.00 | 69 | 1009.0 |
| 20260506211713 | 70 | 119 | 1.7 | 2.6 | 0.00 | 0.00 | 0.00 | 68 | 1009.0 |
| 20260506211211 | 70 | 42 | 0.9 | 2.6 | 0.00 | 0.00 | 0.00 | 68 | 1009.0 |
| 20260506210713 | 69 | 63 | 0.0 | 3.5 | 0.00 | 0.00 | 0.00 | 68 | 1009.0 |
| 20260506210211 | 69 | 48 | 1.7 | 2.6 | 0.00 | 0.00 | 0.00 | 68 | 1009.0 |
| 20260506205711 | 69 | 90 | 0.0 | 1.7 | 0.00 | 0.00 | 0.00 | 70 | 1009.0 |
| 20260506205212 | 69 | 58 | 0.9 | 6.1 | 0.00 | 0.00 | 0.00 | 69 | 1009.0 |
| 20260506204713 | 69 | 221 | 1.7 | 2.6 | 0.00 | 0.00 | 0.00 | 69 | 1009.0 |
| 20260506204211 | 69 | 52 | 1.7 | 3.5 | 0.00 | 0.00 | 0.00 | 71 | 1009.0 |
| 20260506203459 | 69 | 77 | 1.7 | 2.6 | 0.00 | 0.00 | 0.00 | 69 | 1009.0 |
| 20260506203001 | 69 | 140 | 0.0 | 3.5 | 0.00 | 0.00 | 0.00 | 69 | 1009.0 |
| 20260506202459 | 69 | 74 | 3.5 | 5.2 | 0.00 | 0.00 | 0.00 | 68 | 1009.0 |
| 20260506201959 | 70 | 211 | 0.9 | 3.5 | 0.00 | 0.00 | 0.00 | 68 | 1009.0 |
| 20260506201459 | 69 | 60 | 0.9 | 5.2 | 0.00 | 0.00 | 0.00 | 68 | 1009.0 |
| 20260506201000 | 70 | 179 | 0.0 | 5.2 | 0.00 | 0.00 | 0.00 | 68 | 1009.0 |
| 20260506200459 | 70 | 111 | 2.6 | 3.5 | 0.00 | 0.00 | 0.00 | 68 | 1009.0 |
| 20260506195747 | 71 | 151 | 0.9 | 7.8 | 0.00 | 0.00 | 0.00 | 70 | 1009.0 |
| 20260506195247 | 71 | 21 | 0.9 | 3.5 | 0.00 | 0.00 | 0.00 | 68 | 1009.0 |
| 20260506194747 | 71 | 145 | 1.7 | 2.6 | 0.00 | 0.00 | 0.00 | 68 | 1009.0 |
| 20260506194247 | 70 | 118 | 1.7 | 7.0 | 0.00 | 0.00 | 0.00 | 66 | 1009.0 |
| 20260506193748 | 71 | 42 | 1.7 | 6.1 | 0.00 | 0.00 | 0.00 | 67 | 1009.0 |
| 20260506193248 | 71 | 90 | 0.0 | 4.3 | 0.00 | 0.00 | 0.00 | 65 | 1009.0 |
| 20260506192748 | 71 | 50 | 2.6 | 5.2 | 0.00 | 0.00 | 0.00 | 66 | 1009.0 |
| 20260506192247 | 71 | 320 | 0.9 | 4.3 | 0.00 | 0.00 | 0.00 | 66 | 1009.0 |
| 20260506191747 | 71 | 24 | 0.9 | 4.3 | 0.00 | 0.00 | 0.00 | 70 | 1009.0 |
| 20260506191248 | 71 | 139 | 3.5 | 4.3 | 0.00 | 0.00 | 0.00 | 69 | 1009.0 |
| 20260506190747 | 69 | 81 | 2.6 | 2.6 | 0.00 | 0.00 | 0.00 | 70 | 1009.0 |
| 20260506190248 | 69 | 68 | 0.9 | 4.3 | 0.00 | 0.00 | 0.00 | 72 | 1009.0 |
| 20260506185748 | 68 | 75 | 0.9 | 6.1 | 0.00 | 0.00 | 0.00 | 73 | 1009.0 |
| 20260506185035 | 67 | 90 | 0.9 | 3.5 | 0.00 | 0.00 | 0.00 | 76 | 1009.0 |
| 20260506184535 | 66 | 85 | 2.6 | 6.1 | 0.00 | 0.00 | 0.00 | 75 | 1009.0 |
| 20260506184036 | 66 | 83 | 1.7 | 4.3 | 0.00 | 0.00 | 0.00 | 75 | 1010.0 |
| 20260506183535 | 66 | 136 | 1.7 | 4.3 | 0.00 | 0.00 | 0.00 | 75 | 1010.0 |
| 20260506182823 | 65 | 53 | 0.0 | 4.3 | 0.00 | 0.00 | 0.00 | 79 | 1010.0 |
| 20260506181648 | 65 | 152 | 0.0 | 7.0 | 0.00 | 0.00 | 0.00 | 78 | 1010.0 |
| 20260506181150 | 65 | 274 | 1.7 | 3.5 | 0.00 | 0.00 | 0.00 | 79 | 1010.0 |
| 20260506180648 | 64 | 90 | 1.7 | 4.3 | 0.00 | 0.00 | 0.00 | 79 | 1010.0 |
| 20260506180148 | 64 | 61 | 2.6 | 7.8 | 0.00 | 0.00 | 0.00 | 80 | 1010.0 |
| 20260506175650 | 64 | 189 | 1.7 | 4.3 | 0.00 | 0.00 | 0.00 | 79 | 1010.0 |
| 20260506175149 | 63 | 31 | 0.9 | 4.3 | 0.00 | 0.00 | 0.00 | 84 | 1010.0 |
| 20260506174648 | 63 | 134 | 0.9 | 5.2 | 0.00 | 0.00 | 0.00 | 84 | 1010.0 |
| 20260506174148 | 63 | 90 | 0.0 | 5.2 | 0.00 | 0.00 | 0.00 | 82 | 1010.0 |
| 20260506173648 | 63 | 137 | 0.9 | 9.6 | 0.00 | 0.00 | 0.00 | 85 | 1010.0 |
| 20260506173148 | 63 | 117 | 0.9 | 6.1 | 0.00 | 0.00 | 0.00 | 83 | 1010.0 |
| 20260506172648 | 63 | 46 | 0.9 | 4.3 | 0.00 | 0.00 | 0.00 | 84 | 1010.0 |
| 20260506172148 | 62 | 296 | 0.0 | 5.2 | 0.00 | 0.00 | 0.00 | 85 | 1010.0 |
| 20260506171650 | 62 | 90 | 0.0 | 6.1 | 0.00 | 0.00 | 0.00 | 85 | 1010.0 |
| 20260506171148 | 62 | 122 | 0.0 | 6.1 | 0.00 | 0.00 | 0.00 | 86 | 1010.0 |
| 20260506170649 | 62 | 90 | 0.9 | 5.2 | 0.00 | 0.00 | 0.00 | 85 | 1010.0 |
| 20260506170150 | 62 | 82 | 3.5 | 13.0 | 0.00 | 0.00 | 0.00 | 86 | 1010.0 |
| 20260506165649 | 62 | 311 | 0.0 | 6.1 | 0.00 | 0.00 | 0.00 | 89 | 1010.0 |
| 20260506165149 | 61 | 232 | 0.9 | 7.0 | 0.00 | 0.00 | 0.00 | 87 | 1010.0 |
| 20260506164649 | 61 | 30 | 0.9 | 5.2 | 0.00 | 0.00 | 0.00 | 88 | 1010.0 |
| 20260506164149 | 61 | 118 | 0.9 | 8.7 | 0.00 | 0.00 | 0.00 | 89 | 1010.0 |
| 20260506163648 | 61 | 137 | 0.0 | 7.8 | 0.00 | 0.00 | 0.00 | 90 | 1010.0 |
| 20260506163148 | 60 | 123 | 2.6 | 5.2 | 0.00 | 0.00 | 0.00 | 89 | 1010.0 |
| 20260506162649 | 60 | 35 | 2.6 | 5.2 | 0.00 | 0.00 | 0.00 | 90 | 1010.0 |
| 20260506162149 | 60 | 166 | 0.9 | 9.6 | 0.00 | 0.00 | 0.00 | 88 | 1010.0 |
| 20260506161648 | 60 | 197 | 2.6 | 8.7 | 0.00 | 0.00 | 0.00 | 90 | 1010.0 |
| 20260506161148 | 60 | 152 | 2.6 | 4.3 | 0.00 | 0.00 | 0.00 | 90 | 1010.0 |
| 20260506160648 | 60 | 227 | 0.9 | 7.8 | 0.00 | 0.00 | 0.00 | 91 | 1010.0 |
| 20260506160149 | 59 | 161 | 0.9 | 6.1 | 0.00 | 0.00 | 0.00 | 91 | 1010.0 |
| 20260506155648 | 59 | 90 | 0.0 | 7.0 | 0.00 | 0.00 | 0.00 | 92 | 1010.0 |
| 20260506154937 | 59 | 73 | 0.9 | 8.7 | 0.00 | 0.00 | 0.00 | 92 | 1010.0 |
| 20260506154437 | 59 | 90 | 0.0 | 11.3 | 0.00 | 0.00 | 0.00 | 92 | 1011.0 |
| 20260506153515 | 59 | 65 | 1.7 | 5.2 | 0.00 | 0.00 | 0.00 | 93 | 1010.0 |
| 20260506153014 | 59 | 123 | 1.7 | 5.2 | 0.00 | 0.00 | 0.00 | 93 | 1010.0 |
| 20260506152515 | 59 | 102 | 2.6 | 15.6 | 0.00 | 0.00 | 0.00 | 93 | 1010.0 |
| 20260506151803 | 59 | 93 | 8.7 | 13.0 | 0.00 | 0.00 | 0.00 | 92 | 1011.0 |
| 20260506151050 | 59 | 166 | 1.7 | 4.3 | 0.00 | 0.00 | 0.00 | 93 | 1011.0 |
| 20260506150552 | 58 | 134 | 1.7 | 7.0 | 0.00 | 0.00 | 0.00 | 93 | 1011.0 |
| 20260506150051 | 58 | 117 | 3.5 | 7.0 | 0.00 | 0.00 | 0.00 | 92 | 1011.0 |
| 20260506145551 | 58 | 113 | 2.6 | 6.1 | 0.00 | 0.00 | 0.00 | 92 | 1011.0 |
| 20260506145052 | 58 | 152 | 0.9 | 5.2 | 0.00 | 0.00 | 0.00 | 93 | 1011.0 |
| 20260506144550 | 58 | 154 | 1.7 | 11.3 | 0.00 | 0.00 | 0.00 | 93 | 1011.0 |
| 20260506143627 | 58 | 154 | 1.7 | 6.1 | 0.00 | 0.00 | 0.00 | 92 | 1011.0 |
| 20260506143126 | 58 | 321 | 1.7 | 6.1 | 0.00 | 0.00 | 0.00 | 92 | 1011.0 |
| 20260506142626 | 58 | 92 | 3.5 | 5.2 | 0.00 | 0.00 | 0.00 | 92 | 1011.0 |
| 20260506142126 | 58 | 112 | 1.7 | 4.3 | 0.00 | 0.00 | 0.00 | 92 | 1011.0 |
| 20260506141414 | 59 | 168 | 0.9 | 5.2 | 0.00 | 0.00 | 0.00 | 92 | 1011.0 |
| 20260506140913 | 59 | 83 | 2.6 | 4.3 | 0.00 | 0.00 | 0.00 | 92 | 1011.0 |
| 20260506140413 | 59 | 113 | 1.7 | 2.6 | 0.00 | 0.00 | 0.00 | 91 | 1011.0 |
| 20260506135913 | 59 | 134 | 0.0 | 6.1 | 0.00 | 0.00 | 0.00 | 90 | 1011.0 |
| 20260506135413 | 59 | 77 | 2.6 | 6.1 | 0.00 | 0.00 | 0.00 | 90 | 1011.0 |
| 20260506134914 | 59 | 70 | 2.6 | 3.5 | 0.00 | 0.00 | 0.00 | 91 | 1011.0 |
| 20260506134413 | 60 | 109 | 0.9 | 7.0 | 0.00 | 0.00 | 0.00 | 89 | 1011.0 |
| 20260506133912 | 60 | 40 | 0.0 | 2.6 | 0.00 | 0.00 | 0.00 | 89 | 1012.0 |
| 20260506133201 | 60 | 36 | 0.9 | 3.5 | 0.00 | 0.00 | 0.00 | 88 | 1012.0 |
| 20260506132701 | 60 | 122 | 0.9 | 5.2 | 0.00 | 0.00 | 0.00 | 86 | 1012.0 |
| 20260506132203 | 61 | 179 | 0.0 | 5.2 | 0.00 | 0.00 | 0.00 | 86 | 1012.0 |
| 20260506131701 | 61 | 149 | 0.0 | 6.1 | 0.00 | 0.00 | 0.00 | 85 | 1011.0 |
| 20260506131201 | 61 | 227 | 1.7 | 2.6 | 0.00 | 0.00 | 0.00 | 85 | 1011.0 |
| 20260506130701 | 62 | 90 | 0.9 | 1.7 | 0.00 | 0.00 | 0.00 | 86 | 1011.0 |
| 20260506125950 | 61 | 113 | 0.0 | 1.7 | 0.00 | 0.00 | 0.00 | 85 | 1011.0 |
| 20260506125450 | 61 | 140 | 0.9 | 4.3 | 0.00 | 0.00 | 0.00 | 83 | 1011.0 |
| 20260506124951 | 61 | 143 | 0.9 | 3.5 | 0.00 | 0.00 | 0.00 | 84 | 1011.0 |
| 20260506124450 | 62 | 118 | 0.0 | 7.8 | 0.00 | 0.00 | 0.00 | 82 | 1011.0 |
| 20260506123740 | 62 | 111 | 0.9 | 5.2 | 0.00 | 0.00 | 0.00 | 80 | 1011.0 |
| 20260506123239 | 62 | 143 | 0.9 | 2.6 | 0.00 | 0.00 | 0.00 | 79 | 1011.0 |
| 20260506122526 | 63 | 134 | 0.9 | 2.6 | 0.00 | 0.00 | 0.00 | 77 | 1011.0 |
| 20260506122026 | 63 | 71 | 0.9 | 4.3 | 0.00 | 0.00 | 0.00 | 77 | 1011.0 |
| 20260506121314 | 63 | 178 | 0.9 | 3.5 | 0.00 | 0.00 | 0.00 | 75 | 1012.0 |
| 20260506120813 | 63 | 179 | 0.9 | 5.2 | 0.00 | 0.00 | 0.00 | 75 | 1011.0 |
| 20260506120312 | 63 | 50 | 0.0 | 4.3 | 0.00 | 0.00 | 0.00 | 73 | 1011.0 |
| 20260506115814 | 63 | 134 | 1.7 | 7.8 | 0.00 | 0.00 | 0.00 | 74 | 1011.0 |